{"data":{"norad_id":59942,"intl_designator":"2024-106W","name":"STARLINK-31900","alt_names":[],"object_type":"PAYLOAD","status":"ACTIVE","operator":null,"country":"US","launch_date":"2024-06-01","launch_site_code":"AFETR","launch_vehicle":null,"mission":null,"orbit_class":"UNKNOWN","rcs_meters":null,"size_class":null,"mass_kg":null,"dimensions":null,"purposes":["comms"],"wikipedia_slug":null,"has_3d_model":false,"image_url":null,"decayed_at":null,"tle_current":{"epoch":"2026-09-21T13:38:32.644896Z","epoch_age_seconds":85403,"freshness":"FRESH","line1":"1 59942U 24106W   26264.56843339  .00005562  00000+0  21166-3 0  9999","line2":"2 59942  43.0035 305.9846 0000974 288.4772  71.5973 15.27554182130487","mean_motion":15.27554182,"eccentricity":9.74e-5,"inclination_deg":43.0035,"raan_deg":305.9846,"arg_perigee_deg":288.4772,"mean_anomaly_deg":71.5973,"bstar":0.00021166,"rev_number":13048,"period_min":94.268341965758,"perigee_km":482.45811845279,"apogee_km":483.79469256418,"semimajor_km":6861.2634055085,"source":"CELESTRAK","updated_at":"2026-09-22T09:00:49.114994Z"}}}